Portada
METAR-TAF:

METAR-TAF

Aeroports :

Penn Valley Airport

Selinsgrove, Pennsilvània, Estats Units d'Amèrica

latitud: 40-49-09N, longitud: 076-51-58W, altitud: 137 m

Observació

L'informe es va fer fa 58 minuts, a les 19:53 UTC
Vent 12 kt del Sud amb ràfegues de 19 kt
Temperatura 11°C
Humitat 35%
Pressió 1010 hPa
Visibilitat: 16.1 km
Cel clar

METAR: KSEG 241953Z AUTO 19012G19KT 10SM CLR 11/M04 A2982 RMK AO2 SLP100 T01111039

Hora: 15:51 (20:51 UTC)


TAF: manca

Observacions i pronòstics meteorològics de més de 4000 aeroports (METAR i TAF).

Les estacions disponibles són els punts grocs i vermells al mapa.

Posi el ratolí al punt desitjat per veure el nom de l'estació.

Feu clic per veure les observacions i els pronòstics meteorològics.

Per canviar el mapa: feu clic els botons verds amb una creu de color negre per apropar; al botó verd amb un guió per allunyar la imatge; o en les fletxes verdes per a mapes adjacents.


METAR-TAF: